Location: �clusier
(49.9361°N, 2.7869°E)
Time: 16:09:29
(UTC+00:00)

NOAA 13 - Pass Details

Date: 30 January 2022
Orbit: 842 x 857 km, 98.5° (Epoch: 19 May)

Event Time Altitude Azimuth Distance (km) Brightness Sun altitude
Rises 03:43:12 0° 22° (NNE) 3,426 8.3 -35.6°
Reaches altitude 10° 03:45:56 10° 35° (NE) 2,488 7.6 -35.1°
Maximum altitude 03:50:37 28° 93° (E) 1,567 6.5 -34.4°
Drops below altitude 10° 03:55:16 10° 151° (SSE) 2,481 7.3 -33.7°
Sets 03:57:59 0° 163° (SSE) 3,415 7.9 -33.3°
